| time (UTC) | temp F | wind direction | speed MPH | gust MPH | rain 1hr in | rain 24hr in | rain mn in | humidity % | barometer mb |
| 20260505000908 | 56 | 224 | 0.0 | 5.0 | 0.00 | 0.00 | 0.00 | 70 | 1010.9 |
| 20260505000408 | 56 | 224 | 1.0 | 5.0 | 0.00 | 0.00 | 0.00 | 69 | 1010.8 |
| 20260504235909 | 56 | 200 | 0.0 | 0.0 | 0.00 | 0.00 | 0.00 | 68 | 1010.9 |
| 20260504235408 | 57 | 200 | 0.0 | 0.0 | 0.00 | 0.00 | 0.00 | 68 | 1010.8 |
| 20260504234908 | 57 | 200 | 0.0 | 0.0 | 0.00 | 0.00 | 0.00 | 67 | 1010.7 |
| 20260504234408 | 57 | 200 | 0.0 | 0.0 | 0.00 | 0.00 | 0.00 | 66 | 1010.6 |
| 20260504233908 | 58 | 200 | 0.0 | 0.0 | 0.00 | 0.00 | 0.00 | 66 | 1010.6 |
| 20260504233409 | 58 | 200 | 0.0 | 0.0 | 0.00 | 0.00 | 0.00 | 65 | 1010.5 |
| 20260504232909 | 58 | 200 | 0.0 | 0.0 | 0.00 | 0.00 | 0.00 | 64 | 1010.5 |
| 20260504231908 | 59 | 200 | 0.0 | 6.0 | 0.00 | 0.00 | 0.00 | 62 | 1010.2 |
| 20260504231408 | 59 | 270 | 1.0 | 3.0 | 0.00 | 0.00 | 0.00 | 61 | 1010.2 |
| 20260504230909 | 60 | 227 | 1.0 | 3.0 | 0.00 | 0.00 | 0.00 | 61 | 1010.2 |
| 20260504230409 | 60 | 157 | 0.0 | 0.0 | 0.00 | 0.00 | 0.00 | 60 | 1010.1 |
| 20260504225909 | 60 | 157 | 0.0 | 5.0 | 0.00 | 0.00 | 0.00 | 60 | 1010.1 |
| 20260504225409 | 61 | 157 | 0.0 | 5.0 | 0.00 | 0.00 | 0.00 | 60 | 1010.1 |
| 20260504224908 | 61 | 168 | 1.0 | 5.0 | 0.00 | 0.00 | 0.00 | 59 | 1009.9 |
| 20260504223908 | 62 | 277 | 0.0 | 7.0 | 0.00 | 0.00 | 0.00 | 58 | 1009.9 |
| 20260504223409 | 62 | 273 | 4.0 | 7.0 | 0.00 | 0.00 | 0.00 | 58 | 1009.9 |
| 20260504222908 | 62 | 236 | 1.0 | 7.0 | 0.00 | 0.00 | 0.00 | 58 | 1010.0 |
| 20260504222409 | 63 | 234 | 3.0 | 8.0 | 0.00 | 0.00 | 0.00 | 58 | 1009.9 |
| 20260504221910 | 63 | 250 | 5.0 | 8.0 | 0.00 | 0.00 | 0.00 | 58 | 1009.9 |
| 20260504221409 | 63 | 116 | 2.0 | 6.0 | 0.00 | 0.00 | 0.00 | 58 | 1009.9 |
| 20260504220909 | 63 | 229 | 1.0 | 7.0 | 0.00 | 0.00 | 0.00 | 58 | 1009.8 |
| 20260504220408 | 64 | 246 | 1.0 | 7.0 | 0.00 | 0.00 | 0.00 | 58 | 1009.9 |
| 20260504215909 | 64 | 224 | 0.0 | 5.0 | 0.00 | 0.00 | 0.00 | 58 | 1009.8 |
| 20260504215409 | 64 | 239 | 0.0 | 5.0 | 0.00 | 0.00 | 0.00 | 57 | 1009.8 |
| 20260504214909 | 64 | 224 | 1.0 | 6.0 | 0.00 | 0.00 | 0.00 | 56 | 1009.8 |
| 20260504214409 | 65 | 243 | 0.0 | 7.0 | 0.00 | 0.00 | 0.00 | 56 | 1009.8 |
| 20260504213908 | 65 | 189 | 0.0 | 8.0 | 0.00 | 0.00 | 0.00 | 56 | 1009.7 |
| 20260504213409 | 65 | 204 | 3.0 | 8.0 | 0.00 | 0.00 | 0.00 | 55 | 1009.7 |
| 20260504212909 | 65 | 232 | 1.0 | 7.0 | 0.00 | 0.00 | 0.00 | 57 | 1009.7 |
| 20260504212408 | 66 | 215 | 0.0 | 0.0 | 0.00 | 0.00 | 0.00 | 55 | 1009.6 |
| 20260504211908 | 66 | 215 | 0.0 | 0.0 | 0.00 | 0.00 | 0.00 | 55 | 1009.6 |
| 20260504211409 | 66 | 215 | 0.0 | 0.0 | 0.00 | 0.00 | 0.00 | 56 | 1009.6 |
| 20260504210908 | 65 | 215 | 0.0 | 0.0 | 0.00 | 0.00 | 0.00 | 54 | 1009.6 |
| 20260504210408 | 65 | 215 | 0.0 | 0.0 | 0.00 | 0.00 | 0.00 | 56 | 1009.7 |
| 20260504205409 | 66 | 215 | 0.0 | 6.0 | 0.00 | 0.00 | 0.00 | 55 | 1009.6 |
| 20260504204908 | 66 | 215 | 1.0 | 6.0 | 0.00 | 0.00 | 0.00 | 56 | 1009.6 |
| 20260504203908 | 65 | 202 | 2.0 | 7.0 | 0.00 | 0.00 | 0.00 | 56 | 1009.7 |
| 20260504203410 | 65 | 199 | 0.0 | 3.0 | 0.00 | 0.00 | 0.00 | 57 | 1009.8 |
| 20260504202908 | 64 | 188 | 1.0 | 3.0 | 0.00 | 0.00 | 0.00 | 58 | 1009.8 |
| 20260504202408 | 64 | 107 | 0.0 | 0.0 | 0.00 | 0.00 | 0.00 | 58 | 1009.9 |
| 20260504201909 | 64 | 107 | 0.0 | 0.0 | 0.00 | 0.00 | 0.00 | 58 | 1009.9 |
| 20260504201409 | 63 | 107 | 0.0 | 0.0 | 0.00 | 0.00 | 0.00 | 59 | 1010.1 |
| 20260504200908 | 63 | 107 | 0.0 | 2.0 | 0.00 | 0.00 | 0.00 | 59 | 1009.9 |
| 20260504195909 | 62 | 107 | 1.0 | 6.0 | 0.00 | 0.00 | 0.00 | 60 | 1009.9 |
| 20260504180407 | 59 | 125 | 1.0 | 6.0 | 0.00 | 0.00 | 0.00 | 61 | 1010.1 |
| 20260504175907 | 59 | 193 | 1.0 | 8.0 | 0.00 | 0.00 | 0.00 | 60 | 1010.1 |
| 20260504175407 | 59 | 179 | 1.0 | 8.0 | 0.00 | 0.00 | 0.00 | 59 | 1010.1 |
| 20260504174907 | 59 | 158 | 2.0 | 12.0 | 0.00 | 0.00 | 0.00 | 58 | 1010.1 |
| 20260504174407 | 60 | 185 | 6.0 | 12.0 | 0.00 | 0.00 | 0.00 | 56 | 1010.0 |
| 20260504173906 | 61 | 165 | 4.0 | 10.0 | 0.00 | 0.00 | 0.00 | 55 | 1010.0 |
| 20260504173406 | 63 | 201 | 5.0 | 10.0 | 0.00 | 0.00 | 0.00 | 53 | 1009.9 |
| 20260504172907 | 64 | 151 | 3.0 | 14.0 | 0.00 | 0.00 | 0.00 | 52 | 1009.8 |
| 20260504172406 | 64 | 206 | 4.0 | 14.0 | 0.00 | 0.00 | 0.00 | 51 | 1009.7 |
| 20260504171907 | 64 | 185 | 6.0 | 12.0 | 0.00 | 0.00 | 0.00 | 50 | 1009.7 |
| 20260504170907 | 65 | 143 | 4.0 | 13.0 | 0.00 | 0.00 | 0.00 | 50 | 1009.6 |
| 20260504170407 | 65 | 196 | 5.0 | 15.0 | 0.00 | 0.00 | 0.00 | 50 | 1009.7 |
| 20260504160407 | 62 | 188 | 1.0 | 10.0 | 0.00 | 0.00 | 0.00 | 56 | 1010.2 |
| 20260504150906 | 60 | 200 | 6.0 | 10.0 | 0.00 | 0.00 | 0.00 | 60 | 1011.1 |
| 20260504140906 | 54 | 129 | 3.0 | 8.0 | 0.00 | 0.00 | 0.00 | 68 | 1011.9 |
| 20260504140407 | 54 | 155 | 2.0 | 8.0 | 0.00 | 0.00 | 0.00 | 68 | 1011.9 |
| 20260504130406 | 51 | 47 | 2.0 | 10.0 | 0.00 | 0.00 | 0.00 | 72 | 1012.4 |
| 20260504035906 | 44 | 102 | 0.0 | 2.0 | 0.00 | 0.00 | 0.00 | 71 | 1012.1 |
| 20260504035406 | 44 | 102 | 0.0 | 2.0 | 0.00 | 0.00 | 0.00 | 71 | 1011.9 |
| 20260504034906 | 44 | 88 | 0.0 | 6.0 | 0.00 | 0.00 | 0.00 | 70 | 1011.9 |
| 20260504034407 | 44 | 88 | 1.0 | 6.0 | 0.00 | 0.00 | 0.00 | 70 | 1011.9 |
| 20260504033906 | 44 | 177 | 1.0 | 9.0 | 0.00 | 0.00 | 0.00 | 70 | 1011.9 |
| 20260504033407 | 44 | 1 | 0.0 | 9.0 | 0.00 | 0.00 | 0.00 | 69 | 1011.9 |